This demonstration page uses our WeatherBlox Daily Observations layout. Learn more.

Left ArrowRight Arrow

Hourly Observations for January 20, 2017

Temp ( °F °C ) Dew Point ( °F °C ) Humidity (%) Winds ( mph kmh ) Pressure ( in mb ) Visibility ( mi km ) Precip ( " mm )
12:14 am 00:14 Clear 34 1 34 1 100 100 NNE 5 7 30.03 1017 10 16 N/A
12:34 am 00:34 Clear 36 2 36 2 100 100 N N/A 30.03 1017 10 16 N/A
12:54 am 00:54 Clear 34 1 34 1 100 100 N N/A 30.03 1017 10 16 N/A
1:14 am 01:14 Clear 34 1 34 1 100 100 N N/A 30.03 1017 10 16 N/A
1:34 am 01:34 Clear 34 1 34 1 100 100 N N/A 30.03 1017 10 16 N/A
1:54 am 01:54 Clear 36 2 36 2 100 100 undefined N/A 30.03 1017 10 16 N/A
2:14 am 02:14 Clear 36 2 36 2 100 100 N N/A 30.03 1017 10 16 N/A
2:34 am 02:34 Clear 36 2 36 2 100 100 undefined N/A 30.03 1017 10 16 N/A
2:54 am 02:54 Clear 36 2 36 2 100 100 undefined N/A 30.03 1017 10 16 N/A
3:34 am 03:34 Clear 36 2 36 2 100 100 undefined N/A 30.00 1016 7 11 N/A
4:14 am 04:14 Clear 36 2 36 2 100 100 N N/A 30.00 1016 10 16 N/A
4:34 am 04:34 Clear 36 2 36 2 100 100 N N/A 30.00 1016 10 16 N/A
4:56 am 04:56 Clear 36 2 36 2 100 100 N N/A 30.00 1016 7 11 N/A
5:14 am 05:14 Partly Cloudy 36 2 36 2 100 100 undefined N/A 30.00 1016 7 11 N/A
5:34 am 05:34 Mostly Cloudy 36 2 36 2 100 100 N N/A 30.00 1016 10 16 N/A
5:54 am 05:54 Cloudy 37 3 37 3 100 100 undefined N/A 30.00 1016 10 16 N/A
6:14 am 06:14 Cloudy 37 3 37 3 100 100 N N/A 30.00 1016 10 16 N/A
6:34 am 06:34 Cloudy 37 3 37 3 100 100 undefined N/A 29.97 1015 10 16 N/A
6:54 am 06:54 Cloudy 37 3 37 3 100 100 undefined N/A 29.97 1015 10 16 N/A
7:34 am 07:34 Cloudy 39 4 39 4 100 100 undefined N/A 30.00 1016 10 16 N/A
7:54 am 07:54 Cloudy 39 4 39 4 100 100 undefined N/A 29.97 1015 10 16 N/A
8:34 am 08:34 Cloudy with Light Rain 39 4 39 4 100 100 undefined N/A 30.00 1016 7 11 N/A
8:54 am 08:54 Cloudy with Drizzle 39 4 39 4 100 100 N N/A 30.00 1016 7 11 N/A
9:14 am 09:14 Cloudy 41 5 41 5 100 100 N N/A 30.00 1016 10 16 N/A
9:34 am 09:34 Cloudy 41 5 41 5 100 100 N N/A 30.00 1016 7 11 N/A
9:54 am 09:54 Cloudy 41 5 41 5 100 100 N N/A 30.00 1016 7 11 N/A
10:14 am 10:14 Cloudy 41 5 41 5 100 100 N N/A 29.97 1015 7 11 N/A
10:34 am 10:34 Mostly Cloudy 43 6 43 6 100 100 N N/A 29.97 1015 7 11 N/A
10:54 am 10:54 Cloudy with Light Rain 45 7 43 6 93 93 undefined N/A 29.97 1015 10 16 N/A
11:14 am 11:14 Cloudy with Light Rain 45 7 43 6 93 93 undefined N/A 29.94 1014 7 11 N/A
11:34 am 11:34 Cloudy with Light Rain 45 7 45 7 100 100 SW 5 7 29.97 1015 7 11 N/A
11:54 am 11:54 Cloudy with Drizzle 45 7 45 7 100 100 undefined N/A 29.94 1014 7 11 N/A
12:14 pm 12:14 Cloudy 45 7 45 7 100 100 undefined N/A 29.94 1014 10 16 N/A
12:34 pm 12:34 Cloudy 45 7 45 7 100 100 undefined N/A 29.91 1013 7 11 N/A
12:54 pm 12:54 Cloudy 45 7 45 7 100 100 undefined N/A 29.91 1013 7 11 N/A
1:14 pm 13:14 Cloudy 46 8 46 8 100 100 undefined N/A 29.91 1013 10 16 N/A
1:34 pm 13:34 Cloudy 46 8 46 8 100 100 undefined N/A 29.91 1013 7 11 N/A
1:54 pm 13:54 Cloudy 46 8 46 8 100 100 SSE 7 11 29.88 1012 10 16 N/A
2:14 pm 14:14 Cloudy 48 9 46 8 94 94 SE 3 6 29.85 1011 10 16 N/A
2:34 pm 14:34 Cloudy 48 9 46 8 94 94 SSE 3 6 29.85 1011 10 16 N/A
2:54 pm 14:54 Cloudy 48 9 48 9 100 100 SE 6 9 29.85 1011 10 16 N/A
3:14 pm 15:14 Cloudy 50 10 48 9 94 94 SSE 8 13 29.85 1011 10 16 N/A
3:34 pm 15:34 Cloudy 50 10 48 9 94 94 SSE 9 15 29.85 1011 10 16 N/A
3:54 pm 15:54 Cloudy 50 10 48 9 94 94 S 6 9 29.85 1011 10 16 N/A
4:14 pm 16:14 Cloudy 50 10 48 9 94 94 SE 5 7 29.85 1011 10 16 N/A
4:34 pm 16:34 Cloudy 50 10 48 9 94 94 SSE 3 6 29.85 1011 10 16 N/A
4:54 pm 16:54 Cloudy 50 10 48 9 94 94 SE 7 11 29.88 1012 10 16 N/A
5:14 pm 17:14 Cloudy 50 10 48 9 94 94 SSE 5 7 29.88 1012 10 16 N/A
5:34 pm 17:34 Cloudy 50 10 48 9 94 94 SE 7 11 29.88 1012 10 16 N/A
6:14 pm 18:14 Cloudy 48 9 48 9 100 100 SSE 6 9 29.88 1012 7 11 N/A
6:34 pm 18:34 Cloudy 48 9 48 9 100 100 SSE 5 7 29.91 1013 7 11 N/A
6:54 pm 18:54 Cloudy 48 9 48 9 100 100 SE 5 7 29.88 1012 7 11 N/A
7:14 pm 19:14 Cloudy 48 9 48 9 100 100 N N/A 29.88 1012 7 11 N/A
7:34 pm 19:34 Cloudy 48 9 48 9 100 100 SSE 3 6 29.91 1013 7 11 N/A
7:54 pm 19:54 Cloudy with Mist and Fog 48 9 48 9 100 100 SSE 6 9 29.91 1013 5 8 N/A
8:14 pm 20:14 Cloudy with Mist and Fog 48 9 48 9 100 100 SSE 5 7 29.91 1013 5 8 N/A
8:34 pm 20:34 Cloudy with Mist and Fog 48 9 48 9 100 100 S 5 7 29.91 1013 4 6 N/A
8:54 pm 20:54 Cloudy with Mist and Fog 48 9 48 9 100 100 SSE 6 9 29.91 1013 4 6 N/A
9:14 pm 21:14 Cloudy with Mist and Fog 48 9 48 9 100 100 SSE 3 6 29.91 1013 4 6 N/A
9:34 pm 21:34 Cloudy with Mist and Fog 48 9 48 9 100 100 SSE 3 6 29.91 1013 4 6 N/A
9:54 pm 21:54 Cloudy with Mist and Fog 48 9 48 9 100 100 S 3 6 29.91 1013 3 5 N/A
10:14 pm 22:14 Cloudy with Mist and Fog 48 9 48 9 100 100 SSE 5 7 29.91 1013 3 5 N/A
10:34 pm 22:34 Cloudy with Mist and Fog 48 9 48 9 100 100 S 3 6 29.91 1013 3 5 N/A
10:54 pm 22:54 Cloudy with Mist and Fog 48 9 48 9 100 100 SSE 5 7 29.91 1013 3 5 N/A
11:14 pm 23:14 Cloudy with Mist and Fog 48 9 48 9 100 100 S 3 6 29.91 1013 3 5 N/A
11:34 pm 23:34 Cloudy with Mist and Fog 48 9 48 9 100 100 SSE 3 6 29.91 1013 3 5 N/A
11:54 pm 23:54 Cloudy with Mist and Fog 48 9 48 9 100 100 SSE 3 6 29.91 1013 4 6 N/A

Powered by AerisWeather